Regional Weather Roundup
Issued by NWS Charleston, SC

Current Version | Previous Version | Graphics & Text | Print | Product List | Glossary On
Versions: 1 2 3 4 5 6 7 8 9 10 11 12 13 14 15 16 17 18 19 20 21 22 23 24 25 26 27 28 29 30 31 32 33 34 35 36 37 38 39 40 41 42 43 44 45 46 47 48 49 50
000
ASUS42 KCHS 250810
RWRCHS
REGIONAL WEATHER ROUNDUP
NATIONAL WEATHER SERVICE CHARLESTON SC
400 AM EDT SAT OCT 25 2014

NOTE: "FAIR" INDICATES FEW OR NO CLOUDS BELOW 12,000 FEET WITH NO
SIGNIFICANT WEATHER AND/OR OBSTRUCTIONS TO VISIBILITY.

NOT ALL STATIONS ARE QUALITY CONTROLLED BY THE NATIONAL
WEATHER SERVICE. USE DATA WITH CAUTION...ESPECIALLY
DEWPOINT OBSERVATIONS.

SCZ027-030-031-034>040-042>050-250900-
...SOUTH CAROLINA...

CITY           SKY/WX    TMP DP  RH WIND       PRES   REMARKS
N CHARLESTON   CLEAR     53  50  89 CALM      29.98S
WATERFRONT PRK   N/A     61 N/A N/A CALM        N/A
FORT JOHNSON   NOT AVBL
JOHNS ISLAND   SUNNY     52  50  93 CALM      29.98S
PINOPOLIS      NOT AVBL
MONCKS CORNER  FAIR      48  48 100 CALM      29.98S FOG
SUMMERVILLE    FAIR      46  46 100 CALM      30.00S
BEAUFORT MCAS  CLEAR     51  48  89 CALM      29.98F
BEAUFORT ARPT  FAIR      54  54 100 W3        29.98S
HILTON HEAD IS NOT AVBL
GEORGETOWN     NOT AVBL
WALTERBORO     SUNNY     46 N/A N/A CALM      30.00S
ORANGEBURG     CLEAR     46  44  93 CALM      29.99F
BARNWELL       FAIR      43  41  93 CALM      30.00S
AIKEN          FAIR      43  43 100 CALM      30.03S
MANNING        FAIR      45 N/A N/A CALM      29.99S
KINGSTREE      NOT AVBL
COLUMBIA       CLEAR     43  39  86 W5        30.00S
SUMTER         CLEAR     46  45  94 NW2       29.98S
FLORENCE       CLEAR     46  44  93 CALM      29.98F
MYRTLE BEACH   CLEAR     52  46  82 CALM      29.97F
N MYRTLE BEACH CLEAR     49  47  93 CALM      29.97F

$$

GAZ063-065-086>088-099>101-113>116-118-119-134-136>141-150-250900-
...GEORGIA...

CITY           SKY/WX    TMP DP  RH WIND       PRES   REMARKS
SAVANNAH ARPT  CLEAR     52  47  83 CALM      29.99F
HUNTER AAF     CLEAR     50  49  95 W2        29.97F
FORT STEWART   CLEAR     47  45  92 CALM      29.98F
STATESBORO     NOT AVBL
SYLVANIA       SUNNY     50  49  97 CALM      30.00S
CLAXTON        FAIR      45  45 100 CALM      30.00S
THOMSON        CLEAR     45  45 100 CALM      30.04F
AUGUSTA-BUSH   CLEAR     41  40  96 CALM      30.00F
AUGUSTA-DANIEL CLEAR     54  47  77 CALM      30.01S
SWAINSBORO     FAIR      45  45 100 MISG      30.00F
VIDALIA        CLEAR     48  46  93 CALM      30.00F
ALMA           FOG       44  43  96 CALM      30.00S VSB 3/4
WAYCROSS       CLEAR     50  49  95 CALM      30.00S
JESUP          FAIR      46  45  93 CALM      30.00S
BRUNSWICK        N/A     46  46 100 CALM      30.00S VSB 3/4
SAINT SIMONS   CLEAR     52  50  93 CALM      29.98F

$$

SCZ027-028-034-036>038-045-046-048>050-GAZ119-141-250900-
...LAKE AND SUPPLEMENTAL COASTAL OBSERVATIONS...

STATION/POSITION TIME  TEMP    WIND        PRES    WAVE   SWELL
                       AIR SEA DIR/SP/G            HT/PER HT/PER/DIR
                 (UTC) (F)     (DEG/KT/KT) (MB)    (FT/S) (FT/S/D)
UPR LAKE MARION  NOT AVBL
WINYAH BAY       0700   53     310/  1     1015.0S
LAKE MURRAY      0700   52      CALM  /  2 1015.2F
ACE BASIN NERRS  0700   53        CALM     1015.0S
FORT PULASKI     0800   56     290/  5/  7 1015.5F
SAPELO ISLAND    NOT AVBL

$$

ANZ835-935-AMZ111-154-330-350-352-354-374-450-454-472-250900-
...C-MAN AND BUOY OBSERVATIONS...

STATION/POSITION TIME  TEMP    WIND        PRES    WAVE   SWELL
                       AIR SEA DIR/SP/G            HT/PER HT/PER/DIR
                 (UTC) (F)     (DEG/KT/KT) (MB)    (FT/S) (FT/S/D)
FOLLY BEACH CMAN 0700   59     310/  4/  4 1015.7F
BUOY 41004       0800   69 78  360/  6/ 10 1014.4F   3/10   3/10
BUOY 41008       0800   70 74   20/  6/  8 1015.2F   2/10   2/ 90/10
5E ST. MARYS GA  0800      75                N/A     2/10   2/ 90/11
FRYING PAN BUOY  0800   67 73  340/  4/  6 1015.4F   2/ 9   2/100/ 9
BUOY 41025       0800   65     330/ 12/ 14 1014.0F   3/ 9   2/ 30/ 9
CAPE LOOKOUT NC  0700   62     310/  7/  9 1014.4F
BUOY 41002       0655   70 77  360/  6/ 12 1013.8    4/ 9   3/ 20/ 9
BUOY 41010       0800   75 82   30/ 12/ 14 1012.7F   3/ 3   2/ 40/ 9
BUOY 41012       NOT AVBL
ST AUGUSTINE FL  0800   63     320/  8/  9 1015.1F
CAPERS NEARSHORE NOT AVBL
FRIPP NEARSHORE  NOT AVBL


$$



USA.gov is the U.S. government's official web portal to all federal, state and local government web resources and services.